ONEWEB-0561, 56710

Orbit data source: Space-Track

ONEWEB-0561, 56710 is a payload satellite owned by One Web (NAA) (UK) in LEO that was launched on Sat, 20 May 2023 UTC via an FALCON 9 launch vehicle from the Air Force Western Test Range (AFWTR). Payload-class satellites include a variety of spacecraft equipped with specific instruments for various scientific and technological missions. These include communications satellites like Starlink; space stations such as the ISS; scientific satellites like the Hubble; Earth observation satellites from companies like Planet Labs, Umbra, and HawkEye 360; GPS; miniature CubeSats for education and research; and military/defense satellites.

Loading next visibility...
Identifier
56710, 2023-068A
Orbit
LEO
Country
Flag of UKUK
Related business
Manufacturer
One Web
Mission
Operational Commercial Communications
Bus & Motor
ARROW, Unknown motor
Mass
148 kg wet, ~140 kg dry
Launch date (UTC)
2023-05-20 (3 years ago)
Launch vehicle
FALCON 9
Launch site
Air Force Western Test Range (AFWTR)
Object type
Payload
Rocket body
Debris
Shape & HBR
Trap Box + 2 Pan, 6.7 m
Radar Cross Section
3.464 m², Large (>1 m²)

Expand to show TLE details & history
Last TLE update: 2 days ago

TLE from 2 days ago
0 ONEWEB-0561
1 56710U 23068A   26171.30370458  .00000126  00000-0  27802-3 0  9996
2 56710  87.9197 273.8219 0001690  91.8538 268.2789 13.20773395149910
Epoch: 2026-06-20T07:17Z
TLE epoch observation values (Epoch: 2026-06-20T07:17:20.075Z)
Latitude
-0.00002°
Longitude
-104.032°
Altitude
1,184.709 km
Speed
7.261 km/s
True Right ascension
18h 15m 17s
True Declination
0° 00' 00"
Sunlit
Object was in full shadow at epoch
Visualization orbit readout
Latitude
Unknown
Longitude
Unknown
Altitude
Unknown
Speed
Unknown
Apparent Right ascension
Unknown
Apparent Declination
Unknown
Sunlit
N/A
Visualization observer readout
Local Sidereal Time
21:34:01
Azimuth
Unknown
Elevation
Unknown
Doppler factor
Unknown
Orbital elements
Apogee altitude
1,180.149 km
Perigee altitude
1,177.594 km
Semi-major axis
7,557.008 km
Eccentricity
0.00017
Inclination
87.9197°
RAAN
273.8219°
Arg. of periapsis
91.8538°
True anomaly
268.25954°
Mean anomaly
268.2789°
Eccentric anomaly
268.26922°
Mean motion
3.30383 °/min
Orbital period
108.96 mins
BSTAR
0.00027802
Loading maneuver chart data...
Computing Atmospheric mass density...
Loading historical data...
Loading historical data...
Loading historical data...
Loading historical data...
Loading historical data...
Loading historical data...
Loading historical data...

Documentation

Showing up to 5 results
|